[[{"header":{"parameterUnit":"m.s-1","parameterCategory":1,"la1":30.2991,"la2":30.254,"lo1":-89.0895,"lo2":-89.0444,"dy":0.0017,"dx":0.0017,"nx":28,"ny":28,"refTime":"2024-06-13T21:00:00:Z","depth":0,"parameterNumber":2,"parameterNumberName":"U-component_of_WINDS"},"data":[0,0,0,0,0,0,0,0,0,0,0,0,0,0,0,0,0,0,0,0,0,0,0,0,0,0,0,0,0,0,0,0,0,0,0,0,0,0,0,0,0,0,0,0,0,0,0,0,0,0,0,0,0,0,0,0,0,0,0.878,0.8781,0,0.8892,0.8893,0.8894,0.8949,0.8949,0.8949,0.8949,0.9062,0.9065,0.9068,0,0,0,0,0,0,0,0,0,0,0,0,0,0.8612,0.8615,0.878,0.8781,0.8783,0.8892,0.8893,0.8895,0.8949,0.8949,0.8949,0.8949,0.9061,0.9065,0.9069,0,0,0,0,0,0,0,0,0,0,0,0,0,0.87,0.8616,0.878,0.8823,0.8828,0.8891,0.8893,0.8895,0.8949,0.8949,0.8949,0.8949,0.906,0.9065,0.9069,0.9098,0,0,0.9083,0.9085,0,0,0,0,0,0,0,0,0.8695,0.8707,0.8815,0.882,0.8826,0.8906,0.8876,0.8963,0.8949,0.8903,0.8949,0.8949,0.901,0.9019,0.904,0.9103,0.9108,0.9083,0.9086,0.9088,0.9089,0,0,0,0,0,0,0,0.8689,0.8702,0.8824,0.8817,0.8823,0.8836,0.8849,0.8892,0.8955,0.8907,0.8911,0.8924,0.9013,0.9036,0.9043,0.9109,0.9083,0.9087,0.909,0.9092,0.9201,0.9202,0,0,0,0,0,0,0.8676,0.8697,0.8821,0.8828,0.8759,0.8839,0.8853,0.8881,0.8955,0.8966,0.8924,0.8926,0.9028,0.9038,0.9047,0.9086,0.9088,0.9092,0.9095,0.9201,0.9201,0.9202,0,0,0,0,0,0,0.8672,0.8687,0.8816,0.8763,0.8781,0.8842,0.8872,0.8883,0.8905,0.8968,0.8979,0.8935,0.9028,0.9041,0.9085,0.9091,0.9094,0.9099,0.9201,0.9201,0.9202,0.9163,0,0,0,0,0,0,0.8667,0.8685,0.8697,0.8763,0.8783,0.8852,0.8873,0.8885,0.8913,0.8917,0.8981,0.8992,0.9029,0.9078,0.9089,0.9097,0.9102,0.9201,0.9201,0.9201,0.9164,0.9162,0.916,0,0,0,0,0,0.8661,0.8681,0.8697,0.8712,0.8799,0.8852,0.8864,0.8906,0.8913,0.8925,0.8965,0.899,0.9088,0.9082,0.9095,0.9104,0.9201,0.9201,0.9201,0.9165,0.9162,0.916,0,0,0,0,0,0,0.8613,0.8691,0.8709,0.8751,0.8795,0.8861,0.8878,0.8902,0.8944,0.8946,0.8997,0.9011,0.905,0.9082,0.9074,0.9136,0.9147,0.915,0.9114,0.9112,0.911,0.9102,0.9106,0,0,0,0,0,0.8608,0.8645,0.871,0.8741,0.8762,0.8816,0.884,0.887,0.8917,0.8935,0.8979,0.9023,0.9064,0.909,0.9131,0.9168,0.9183,0.9181,0.9179,0.9177,0.9179,0.9202,0.9202,0.9203,0.9203,0.9203,0,0,0.8597,0.8643,0.8663,0.8732,0.877,0.8806,0.8831,0.8869,0.8896,0.8941,0.8985,0.9018,0.9071,0.9112,0.9132,0.9139,0.9182,0.9178,0.9176,0.9179,0.9202,0.9202,0.9202,0.9203,0.9203,0.9203,0,0,0.8595,0.8634,0.8664,0.8701,0.8757,0.8793,0.88,0.8863,0.8887,0.8932,0.8966,0.8999,0.9069,0.9105,0.9132,0.9144,0.9168,0.9156,0.9146,0.9167,0.9167,0.9167,0.9172,0.9172,0.9158,0.9158,0.9158,0,0.8574,0.8631,0.8676,0.8712,0.8742,0.8784,0.8815,0.8848,0.8914,0.8933,0.894,0.9028,0.9066,0.9116,0.9119,0.914,0.915,0.9149,0.9163,0.9164,0.9165,0.917,0.9171,0.9156,0.9156,0.9156,0.9157,0,0.8602,0.8641,0.8659,0.8722,0.8753,0.8786,0.8836,0.8862,0.8888,0.8923,0.8969,0.9016,0.9068,0.9082,0.9108,0.9136,0.9138,0.9154,0.9166,0.9162,0.9167,0.917,0.9153,0.9154,0.9155,0.9155,0,0,0.8574,0.8662,0.8668,0.8697,0.8762,0.8793,0.8827,0.8878,0.8899,0.8943,0.8974,0.9031,0.9046,0.9077,0.9107,0.9126,0.9132,0.9139,0.9141,0.9136,0.9166,0.9154,0.9156,0.9149,0.9149,0.9149,0.9162,0,0.8581,0.8646,0.8688,0.8736,0.8773,0.8813,0.8843,0.8886,0.892,0.8955,0.8992,0.9032,0.9048,0.9067,0.9087,0.9127,0.9139,0.9127,0.9177,0.9179,0.9163,0.9159,0.9146,0.9156,0.9164,0.9165,0.9165,0,0.8599,0.8642,0.8694,0.8755,0.8772,0.8798,0.8848,0.8882,0.8931,0.8954,0.8989,0.9019,0.9058,0.9066,0.9119,0.911,0.9133,0.9155,0.9157,0.9163,0.9172,0.9165,0.916,0.9161,0.9169,0.9168,0.9168,0,0.8573,0.8644,0.8685,0.8709,0.8781,0.8798,0.8829,0.8878,0.8906,0.895,0.8968,0.9015,0.9041,0.9076,0.9119,0.9121,0.9168,0.918,0.9188,0.9187,0.9196,0.9195,0.9194,0.921,0.921,0.921,0.921,0,0.8577,0.8607,0.8674,0.8699,0.8734,0.8781,0.8814,0.8848,0.8892,0.8924,0.8961,0.899,0.9045,0.908,0.9114,0.9153,0.9164,0.9184,0.9192,0.9181,0.9178,0.9196,0.9197,0.9211,0.9211,0.921,0.921,0,0.8554,0.86,0.8647,0.8712,0.8728,0.8751,0.8806,0.8832,0.8867,0.8907,0.8919,0.8975,0.9018,0.9064,0.9124,0.9146,0.9184,0.9196,0.9167,0.9172,0.9178,0.9177,0.919,0.9194,0.9206,0.9206,0.9206,0,0.8554,0.8578,0.8645,0.867,0.87,0.8738,0.8767,0.8814,0.8843,0.8901,0.8919,0.8966,0.9006,0.9074,0.9119,0.9165,0.9178,0.9179,0.9185,0.9173,0.9179,0.9177,0.9179,0.9177,0.9177,0.9177,0.9177,0,0.8548,0.857,0.861,0.8659,0.8692,0.8732,0.8773,0.8791,0.8847,0.8876,0.8922,0.8953,0.9014,0.906,0.9111,0.9142,0.9169,0.9174,0.9179,0.9167,0.915,0.9159,0.9162,0.9174,0.9174,0.9174,0.9174,0.9175,0.8537,0.856,0.8612,0.8655,0.8691,0.8729,0.8757,0.8796,0.8835,0.8888,0.8914,0.8959,0.9008,0.9079,0.911,0.9146,0.9154,0.916,0.9162,0.9162,0.916,0.9144,0.9155,0.9156,0.9156,0.9156,0.9156,0,0.8533,0.8568,0.8608,0.8665,0.8699,0.8722,0.8769,0.8796,0.8835,0.8879,0.8917,0.897,0.9014,0.9063,0.9111,0.913,0.9144,0.9141,0.914,0.9147,0.915,0.9141,0.913,0.913,0.913,0.913,0.913,0.913,0.8536,0.8577,0.8605,0.8664,0.8699,0.8744,0.8769,0.8804,0.8839,0.8896,0.8933,0.8965,0.9011,0.9062,0.9104,0.9117,0.9133,0.9127,0.9144,0.9145,0.9147,0.9149,0.9141,0.913,0.913,0.9138,0.9138,0.9138]},{"header":{"parameterUnit":"m.s-1","parameterCategory":1,"la1":30.2991,"la2":30.254,"lo1":-89.0895,"lo2":-89.0444,"dy":0.0017,"dx":0.0017,"nx":28,"ny":28,"refTime":"2024-06-13T21:00:00:Z","depth":0,"parameterNumber":3,"parameterNumberName":"V-component_of_WINDS"},"data":[0,0,0,0,0,0,0,0,0,0,0,0,0,0,0,0,0,0,0,0,0,0,0,0,0,0,0,0,0,0,0,0,0,0,0,0,0,0,0,0,0,0,0,0,0,0,0,0,0,0,0,0,0,0,0,0,0,0,2.3109,2.3108,0,2.3039,2.3038,2.3038,2.2991,2.2991,2.2991,2.299,2.2914,2.2913,2.2911,0,0,0,0,0,0,0,0,0,0,0,0,0,2.3197,2.3196,2.3109,2.3108,2.3107,2.3039,2.3038,2.3037,2.2991,2.2991,2.2991,2.299,2.2915,2.2913,2.2911,0,0,0,0,0,0,0,0,0,0,0,0,0,2.3146,2.3195,2.3109,2.3076,2.3072,2.3039,2.3038,2.3037,2.2991,2.2991,2.299,2.299,2.2916,2.2913,2.2911,2.2903,0,0,2.2903,2.2901,0,0,0,0,0,0,0,0,2.3149,2.3143,2.3082,2.3078,2.3074,2.3024,2.3042,2.2992,2.2991,2.3022,2.299,2.299,2.2951,2.2945,2.2933,2.29,2.2897,2.2902,2.2901,2.29,2.2899,0,0,0,0,0,0,0,2.3153,2.3146,2.3081,2.3081,2.3076,2.3063,2.3055,2.3032,2.299,2.3019,2.3016,2.3008,2.2949,2.2936,2.2931,2.2895,2.2902,2.29,2.2898,2.2897,2.2852,2.2852,0,0,0,0,0,0,2.3162,2.3149,2.3083,2.3079,2.3112,2.3062,2.3053,2.304,2.299,2.2982,2.3009,2.3007,2.294,2.2934,2.2928,2.2916,2.29,2.2897,2.2896,2.2852,2.2852,2.2852,0,0,0,0,0,0,2.3164,2.3157,2.3086,2.3113,2.3103,2.3061,2.3046,2.3039,2.3026,2.2982,2.2974,2.3004,2.294,2.2932,2.291,2.2913,2.2896,2.2894,2.2851,2.2852,2.2852,2.2892,0,0,0,0,0,0,2.3167,2.3158,2.3156,2.3113,2.3102,2.3071,2.3047,2.3038,2.3022,2.3019,2.2975,2.2967,2.2939,2.2914,2.2907,2.2909,2.2892,2.2851,2.2851,2.2852,2.289,2.2894,2.2897,0,0,0,0,0,2.317,2.3169,2.3156,2.3148,2.3099,2.3071,2.3064,2.3033,2.3023,2.3019,2.2991,2.2969,2.2914,2.2912,2.2904,2.2905,2.285,2.2851,2.2852,2.2889,2.2893,2.2897,0,0,0,0,0,0,2.3211,2.3163,2.3148,2.3133,2.3107,2.3063,2.3058,2.3039,2.3013,2.3011,2.2971,2.2962,2.2944,2.2922,2.2922,2.2895,2.2879,2.2879,2.291,2.2914,2.2917,2.2922,2.2889,0,0,0,0,0,2.3218,2.3202,2.316,2.315,2.3138,2.3101,2.3088,2.3066,2.3036,2.3024,2.2994,2.2965,2.2941,2.2926,2.2902,2.2887,2.2876,2.2883,2.2887,2.289,2.2889,2.2879,2.2882,2.2855,2.2855,2.2855,0,0,2.3233,2.3205,2.3196,2.3158,2.3135,2.3117,2.3092,2.3074,2.3059,2.3021,2.2999,2.2976,2.2941,2.2923,2.2913,2.2904,2.2894,2.2891,2.2894,2.2891,2.288,2.2883,2.2885,2.2856,2.2856,2.2856,0,0,2.325,2.3228,2.3218,2.3196,2.3162,2.3137,2.3135,2.3094,2.3078,2.3056,2.3027,2.3008,2.2968,2.2944,2.2927,2.2936,2.2914,2.2929,2.2946,2.2937,2.2939,2.294,2.2943,2.2944,2.2929,2.2929,2.2929,0,2.3272,2.3246,2.3214,2.3198,2.3182,2.3148,2.3137,2.3116,2.3076,2.3064,2.3055,2.3004,2.2978,2.2953,2.2956,2.2943,2.2938,2.2933,2.2941,2.2943,2.2944,2.2945,2.2947,2.2931,2.2931,2.293,2.293,0,2.3274,2.3256,2.3252,2.3215,2.3198,2.3184,2.3149,2.3136,2.3116,2.3091,2.3068,2.3036,2.3005,2.2997,2.2976,2.2969,2.2965,2.2949,2.2932,2.2949,2.295,2.295,2.2934,2.2933,2.2932,2.2932,0,0,2.3315,2.3262,2.3261,2.3243,2.3204,2.3188,2.3173,2.3143,2.3132,2.3105,2.309,2.3057,2.3042,2.3023,2.2999,2.2991,2.2999,2.2976,2.2974,2.2981,2.2988,2.3,2.3002,2.2985,2.2985,2.2985,2.2991,0,2.3326,2.3298,2.3269,2.325,2.3233,2.32,2.3186,2.316,2.3137,2.3117,2.3091,2.3068,2.3051,2.3039,2.3029,2.3,2.3,2.2999,2.2969,2.2968,2.2978,2.3002,2.3015,2.3022,2.2991,2.2992,2.2992,0,2.3335,2.3311,2.3292,2.3254,2.3245,2.3234,2.3204,2.3186,2.3155,2.3139,2.3117,2.3093,2.3073,2.3059,2.303,2.3031,2.3016,2.3,2.3,2.2995,2.2981,2.2998,2.3024,2.3025,2.2992,2.2992,2.2992,0,2.3366,2.3329,2.3312,2.3299,2.3254,2.3247,2.3228,2.3196,2.318,2.3154,2.3143,2.3114,2.3099,2.3076,2.3044,2.3037,2.3018,2.3002,2.3003,2.3004,2.3,2.3001,2.3024,2.2992,2.2992,2.2992,2.2992,0,2.3381,2.337,2.3326,2.3315,2.3302,2.3268,2.3255,2.3232,2.3205,2.3188,2.3158,2.3143,2.3102,2.3081,2.3056,2.3035,2.3028,2.3014,2.3007,2.3016,2.3018,2.3006,2.3004,2.2992,2.2992,2.2992,2.2992,0,2.3413,2.3383,2.3363,2.3323,2.3312,2.3304,2.3269,2.3257,2.3233,2.3212,2.3205,2.3166,2.3141,2.3107,2.307,2.3052,2.3035,2.3025,2.3046,2.3042,2.3045,2.3045,2.3061,2.3061,2.303,2.303,2.3031,0,2.3424,2.3415,2.3375,2.3363,2.3345,2.3325,2.331,2.3276,2.326,2.3224,2.3216,2.3189,2.3165,2.3125,2.3092,2.3064,2.3052,2.306,2.3047,2.3057,2.3051,2.3052,2.3051,2.3062,2.3063,2.3063,2.3064,0,2.3447,2.3433,2.3412,2.3386,2.3369,2.3346,2.3322,2.3313,2.3274,2.3258,2.3232,2.3214,2.3177,2.315,2.3117,2.3095,2.3073,2.3068,2.3067,2.3076,2.3088,2.3081,2.3054,2.3068,2.3067,2.3067,2.3067,2.3067,2.3468,2.3459,2.3429,2.3407,2.3386,2.3364,2.3351,2.3326,2.3304,2.3273,2.3254,2.3229,2.3197,2.3151,2.313,2.3109,2.31,2.3098,2.3098,2.3098,2.3101,2.3093,2.3103,2.3103,2.3103,2.3103,2.3103,0,2.3489,2.3469,2.3449,2.3417,2.34,2.3382,2.3354,2.334,2.3319,2.3292,2.327,2.324,2.3213,2.3179,2.3149,2.3139,2.3128,2.3132,2.3132,2.3127,2.311,2.3114,2.3142,2.3142,2.3142,2.3142,2.3142,2.3142,2.3498,2.3481,2.3464,2.3435,2.3414,2.3391,2.3377,2.3356,2.3334,2.3303,2.3282,2.326,2.323,2.3198,2.3172,2.3162,2.3152,2.316,2.3147,2.3132,2.3129,2.3125,2.3129,2.3159,2.3159,2.3166,2.3166,2.3166]}]]